| time (UTC) | temp F | wind direction | speed MPH | gust MPH | rain 1hr in | rain 24hr in | rain mn in | humidity % | barometer mb |
| 20260503224952 | 78 | 173 | 5.0 | 13.0 | 0.00 | 0.00 | 0.00 | 37 | 1019.4 |
| 20260503224449 | 79 | 207 | 7.0 | 9.0 | 0.00 | 0.00 | 0.00 | 37 | 1019.6 |
| 20260503223947 | 78 | 181 | 1.0 | 6.0 | 0.00 | 0.00 | 0.00 | 39 | 1019.4 |
| 20260503223445 | 78 | 158 | 7.0 | 10.0 | 0.00 | 0.00 | 0.00 | 38 | 1019.3 |
| 20260503222940 | 79 | 231 | 8.0 | 10.0 | 0.00 | 0.00 | 0.00 | 37 | 1019.5 |
| 20260503222439 | 80 | 177 | 6.0 | 9.0 | 0.00 | 0.00 | 0.00 | 37 | 1019.7 |
| 20260503221937 | 80 | 189 | 4.0 | 9.0 | 0.00 | 0.00 | 0.00 | 37 | 1019.6 |
| 20260503221435 | 79 | 182 | 5.0 | 9.0 | 0.00 | 0.00 | 0.00 | 37 | 1019.7 |
| 20260503220931 | 80 | 177 | 11.0 | 15.0 | 0.00 | 0.00 | 0.00 | 36 | 1019.9 |
| 20260503220427 | 79 | 216 | 2.0 | 6.0 | 0.00 | 0.00 | 0.00 | 38 | 1019.8 |
| 20260503215925 | 79 | 185 | 6.0 | 11.0 | 0.00 | 0.00 | 0.00 | 36 | 1019.8 |
| 20260503215422 | 79 | 194 | 4.0 | 9.0 | 0.00 | 0.00 | 0.00 | 37 | 1020.0 |
| 20260503214919 | 79 | 192 | 9.0 | 11.0 | 0.00 | 0.00 | 0.00 | 36 | 1020.0 |
| 20260503214417 | 80 | 174 | 7.0 | 14.0 | 0.00 | 0.00 | 0.00 | 36 | 1020.1 |
| 20260503213914 | 80 | 200 | 6.0 | 10.0 | 0.00 | 0.00 | 0.00 | 36 | 1020.0 |
| 20260503213412 | 80 | 228 | 8.0 | 15.0 | 0.00 | 0.00 | 0.00 | 35 | 1020.3 |
| 20260503212908 | 80 | 166 | 3.0 | 9.0 | 0.00 | 0.00 | 0.00 | 36 | 1020.4 |
| 20260503212406 | 81 | 190 | 3.0 | 7.0 | 0.00 | 0.00 | 0.00 | 36 | 1020.6 |
| 20260503211903 | 81 | 206 | 1.0 | 6.0 | 0.00 | 0.00 | 0.00 | 35 | 1020.7 |
| 20260503211359 | 80 | 178 | 5.0 | 11.0 | 0.00 | 0.00 | 0.00 | 34 | 1020.7 |
| 20260503210855 | 80 | 182 | 10.0 | 14.0 | 0.00 | 0.00 | 0.00 | 33 | 1020.6 |
| 20260503210352 | 80 | 203 | 4.0 | 8.0 | 0.00 | 0.00 | 0.00 | 33 | 1020.9 |
| 20260503205847 | 80 | 223 | 4.0 | 14.0 | 0.00 | 0.00 | 0.00 | 34 | 1020.9 |
| 20260503205344 | 80 | 203 | 7.0 | 13.0 | 0.00 | 0.00 | 0.00 | 33 | 1020.9 |
| 20260503204840 | 80 | 211 | 7.0 | 9.0 | 0.00 | 0.00 | 0.00 | 34 | 1020.9 |
| 20260503204338 | 80 | 180 | 3.0 | 6.0 | 0.00 | 0.00 | 0.00 | 38 | 1021.2 |
| 20260503203835 | 80 | 171 | 7.0 | 10.0 | 0.00 | 0.00 | 0.00 | 35 | 1021.2 |
| 20260503203332 | 80 | 171 | 5.0 | 9.0 | 0.00 | 0.00 | 0.00 | 38 | 1021.4 |
| 20260503202829 | 80 | 60 | 6.0 | 9.0 | 0.00 | 0.00 | 0.00 | 34 | 1021.4 |
| 20260503202327 | 80 | 241 | 2.0 | 7.0 | 0.00 | 0.00 | 0.00 | 35 | 1021.6 |
| 20260503201826 | 80 | 194 | 3.0 | 10.0 | 0.00 | 0.00 | 0.00 | 34 | 1021.7 |
| 20260503201322 | 80 | 144 | 6.0 | 8.0 | 0.00 | 0.00 | 0.00 | 33 | 1021.8 |
| 20260503200820 | 80 | 235 | 3.0 | 8.0 | 0.00 | 0.00 | 0.00 | 33 | 1021.7 |
| 20260503200315 | 79 | 158 | 3.0 | 7.0 | 0.00 | 0.00 | 0.00 | 35 | 1021.6 |
| 20260503195813 | 80 | 165 | 13.0 | 15.0 | 0.00 | 0.00 | 0.00 | 32 | 1021.8 |
| 20260503195309 | 81 | 72 | 3.0 | 8.0 | 0.00 | 0.00 | 0.00 | 35 | 1021.9 |
| 20260503194807 | 80 | 187 | 3.0 | 7.0 | 0.00 | 0.00 | 0.00 | 38 | 1022.1 |
| 20260503194302 | 80 | 197 | 6.0 | 8.0 | 0.00 | 0.00 | 0.00 | 34 | 1022.1 |
| 20260503193759 | 79 | 195 | 6.0 | 13.0 | 0.00 | 0.00 | 0.00 | 34 | 1022.0 |
| 20260503193255 | 80 | 187 | 12.0 | 15.0 | 0.00 | 0.00 | 0.00 | 33 | 1022.2 |
| 20260503192751 | 79 | 212 | 9.0 | 11.0 | 0.00 | 0.00 | 0.00 | 34 | 1022.1 |
| 20260503192246 | 80 | 156 | 6.0 | 14.0 | 0.00 | 0.00 | 0.00 | 34 | 1022.2 |
| 20260503191743 | 80 | 175 | 6.0 | 13.0 | 0.00 | 0.00 | 0.00 | 34 | 1022.2 |
| 20260503191240 | 81 | 231 | 5.0 | 9.0 | 0.00 | 0.00 | 0.00 | 37 | 1022.4 |
| 20260503190737 | 81 | 211 | 2.0 | 6.0 | 0.00 | 0.00 | 0.00 | 36 | 1022.4 |
| 20260503190234 | 80 | 172 | 3.0 | 6.0 | 0.00 | 0.00 | 0.00 | 35 | 1022.5 |
| 20260503185731 | 80 | 214 | 8.0 | 13.0 | 0.00 | 0.00 | 0.00 | 35 | 1022.6 |
| 20260503185226 | 80 | 193 | 6.0 | 9.0 | 0.00 | 0.00 | 0.00 | 34 | 1022.7 |
| 20260503184721 | 80 | 207 | 7.0 | 11.0 | 0.00 | 0.00 | 0.00 | 35 | 1022.8 |
| 20260503184218 | 80 | 204 | 4.0 | 8.0 | 0.00 | 0.00 | 0.00 | 34 | 1022.9 |
| 20260503183714 | 80 | 220 | 4.0 | 6.0 | 0.00 | 0.00 | 0.00 | 34 | 1023.0 |
| 20260503183211 | 81 | 222 | 2.0 | 8.0 | 0.00 | 0.00 | 0.00 | 33 | 1022.9 |
| 20260503182709 | 81 | 231 | 1.0 | 2.0 | 0.00 | 0.00 | 0.00 | 36 | 1023.0 |
| 20260503182208 | 79 | 173 | 3.0 | 4.0 | 0.00 | 0.00 | 0.00 | 33 | 1023.1 |
| 20260503181704 | 79 | 159 | 12.0 | 14.0 | 0.00 | 0.00 | 0.00 | 33 | 1023.4 |
| 20260503181201 | 79 | 195 | 7.0 | 9.0 | 0.00 | 0.00 | 0.00 | 34 | 1023.2 |
| 20260503180657 | 78 | 246 | 5.0 | 7.0 | 0.00 | 0.00 | 0.00 | 34 | 1023.4 |
| 20260503180156 | 79 | 231 | 10.0 | 14.0 | 0.00 | 0.00 | 0.00 | 34 | 1023.6 |
| 20260503175652 | 79 | 183 | 7.0 | 9.0 | 0.00 | 0.00 | 0.00 | 35 | 1023.4 |
| 20260503175150 | 79 | 118 | 3.0 | 8.0 | 0.00 | 0.00 | 0.00 | 37 | 1023.6 |
| 20260503174646 | 79 | 179 | 5.0 | 8.0 | 0.00 | 0.00 | 0.00 | 35 | 1023.7 |
| 20260503174143 | 80 | 212 | 3.0 | 7.0 | 0.00 | 0.00 | 0.00 | 34 | 1023.9 |
| 20260503173638 | 79 | 213 | 5.0 | 8.0 | 0.00 | 0.00 | 0.00 | 35 | 1023.8 |
| 20260503173135 | 78 | 184 | 2.0 | 7.0 | 0.00 | 0.00 | 0.00 | 38 | 1024.2 |
| 20260503172632 | 79 | 164 | 4.0 | 9.0 | 0.00 | 0.00 | 0.00 | 35 | 1024.2 |
| 20260503172130 | 79 | 218 | 5.0 | 10.0 | 0.00 | 0.00 | 0.00 | 37 | 1024.1 |
| 20260503171626 | 78 | 233 | 1.0 | 7.0 | 0.00 | 0.00 | 0.00 | 37 | 1024.1 |
| 20260503171123 | 79 | 230 | 4.0 | 7.0 | 0.00 | 0.00 | 0.00 | 36 | 1024.3 |
| 20260503170620 | 79 | 218 | 4.0 | 4.0 | 0.00 | 0.00 | 0.00 | 38 | 1024.5 |
| 20260503170117 | 77 | 170 | 2.0 | 6.0 | 0.00 | 0.00 | 0.00 | 39 | 1024.5 |
| 20260503151012 | 73 | 187 | 4.0 | 8.0 | 0.00 | 0.00 | 0.00 | 52 | 1025.0 |
| 20260503150508 | 73 | 261 | 1.0 | 6.0 | 0.00 | 0.00 | 0.00 | 54 | 1025.1 |
| 20260503131402 | 65 | 196 | 0.0 | 2.0 | 0.00 | 0.00 | 0.00 | 65 | 1024.3 |
| 20260503130859 | 64 | 204 | 0.0 | 1.0 | 0.00 | 0.00 | 0.00 | 66 | 1024.3 |
| 20260503130356 | 64 | 204 | 1.0 | 1.0 | 0.00 | 0.00 | 0.00 | 65 | 1024.4 |
| 20260503110755 | 57 | 231 | 0.0 | 0.0 | 0.00 | 0.00 | 0.00 | 77 | 1023.1 |
| 20260503110252 | 57 | 236 | 0.0 | 0.0 | 0.00 | 0.00 | 0.00 | 77 | 1023.1 |
| 20260503100218 | 57 | 232 | 0.0 | 0.0 | 0.00 | 0.00 | 0.00 | 72 | 1022.9 |
| 20260503090148 | 59 | 217 | 1.0 | 2.0 | 0.00 | 0.00 | 0.00 | 68 | 1022.8 |
| 20260503081624 | 59 | 236 | 1.0 | 2.0 | 0.00 | 0.00 | 0.00 | 69 | 1022.5 |
| 20260503081121 | 59 | 223 | 2.0 | 2.0 | 0.00 | 0.00 | 0.00 | 69 | 1022.8 |
| 20260503080617 | 59 | 222 | 2.0 | 2.0 | 0.00 | 0.00 | 0.00 | 69 | 1022.6 |
| 20260503080114 | 59 | 217 | 1.0 | 2.0 | 0.00 | 0.00 | 0.00 | 68 | 1022.6 |
| 20260503072551 | 59 | 244 | 1.0 | 2.0 | 0.00 | 0.00 | 0.00 | 69 | 1022.9 |
| 20260503072048 | 59 | 214 | 1.0 | 2.0 | 0.00 | 0.00 | 0.00 | 69 | 1022.9 |
| 20260503071544 | 59 | 214 | 1.0 | 2.0 | 0.00 | 0.00 | 0.00 | 69 | 1022.9 |
| 20260503071041 | 59 | 203 | 0.0 | 2.0 | 0.00 | 0.00 | 0.00 | 69 | 1023.0 |
| 20260503070537 | 60 | 211 | 2.0 | 3.0 | 0.00 | 0.00 | 0.00 | 68 | 1023.0 |
| 20260503054951 | 60 | 208 | 3.0 | 3.0 | 0.00 | 0.00 | 0.00 | 68 | 1023.4 |
| 20260503054447 | 60 | 212 | 2.0 | 3.0 | 0.00 | 0.00 | 0.00 | 68 | 1023.4 |
| 20260503053945 | 60 | 201 | 2.0 | 3.0 | 0.00 | 0.00 | 0.00 | 68 | 1023.5 |
| 20260503053443 | 60 | 215 | 1.0 | 2.0 | 0.00 | 0.00 | 0.00 | 67 | 1023.5 |
| 20260503052939 | 60 | 222 | 2.0 | 3.0 | 0.00 | 0.00 | 0.00 | 67 | 1023.3 |
| 20260503052437 | 60 | 194 | 3.0 | 3.0 | 0.00 | 0.00 | 0.00 | 68 | 1023.3 |
| 20260503051932 | 60 | 202 | 1.0 | 3.0 | 0.00 | 0.00 | 0.00 | 68 | 1023.3 |
| 20260503051429 | 60 | 193 | 1.0 | 2.0 | 0.00 | 0.00 | 0.00 | 68 | 1023.3 |
| 20260503050926 | 60 | 221 | 2.0 | 2.0 | 0.00 | 0.00 | 0.00 | 68 | 1023.3 |
| 20260503050422 | 60 | 218 | 2.0 | 2.0 | 0.00 | 0.00 | 0.00 | 68 | 1023.1 |
| 20260503045920 | 60 | 219 | 2.0 | 3.0 | 0.00 | 0.00 | 0.00 | 67 | 1023.1 |
| 20260503045417 | 60 | 214 | 1.0 | 2.0 | 0.00 | 0.00 | 0.00 | 67 | 1022.9 |
| 20260503044914 | 60 | 218 | 1.0 | 1.0 | 0.00 | 0.00 | 0.00 | 67 | 1023.2 |
| 20260503044411 | 60 | 217 | 1.0 | 1.0 | 0.00 | 0.00 | 0.00 | 67 | 1023.1 |
| 20260503043908 | 60 | 218 | 1.0 | 2.0 | 0.00 | 0.00 | 0.00 | 67 | 1023.2 |
| 20260503043404 | 61 | 208 | 0.0 | 1.0 | 0.00 | 0.00 | 0.00 | 66 | 1023.1 |
| 20260503042901 | 61 | 219 | 1.0 | 2.0 | 0.00 | 0.00 | 0.00 | 65 | 1023.1 |
| 20260503042357 | 61 | 228 | 1.0 | 2.0 | 0.00 | 0.00 | 0.00 | 65 | 1023.1 |
| 20260503041853 | 62 | 219 | 1.0 | 1.0 | 0.00 | 0.00 | 0.00 | 64 | 1023.0 |
| 20260503041351 | 62 | 219 | 1.0 | 1.0 | 0.00 | 0.00 | 0.00 | 64 | 1023.2 |
| 20260503040848 | 62 | 215 | 2.0 | 2.0 | 0.00 | 0.00 | 0.00 | 63 | 1023.0 |
| 20260503040346 | 62 | 215 | 1.0 | 2.0 | 0.00 | 0.00 | 0.00 | 64 | 1023.1 |
| 20260503035842 | 62 | 218 | 1.0 | 2.0 | 0.00 | 0.00 | 0.00 | 64 | 1022.9 |
| 20260503035339 | 62 | 213 | 1.0 | 2.0 | 0.00 | 0.00 | 0.00 | 64 | 1022.9 |
| 20260503034837 | 62 | 224 | 2.0 | 2.0 | 0.00 | 0.00 | 0.00 | 63 | 1022.9 |
| 20260503034334 | 62 | 224 | 2.0 | 2.0 | 0.00 | 0.00 | 0.00 | 63 | 1022.9 |
| 20260503033831 | 62 | 222 | 1.0 | 2.0 | 0.00 | 0.00 | 0.00 | 64 | 1022.9 |
| 20260503033329 | 62 | 225 | 1.0 | 1.0 | 0.00 | 0.00 | 0.00 | 65 | 1022.9 |
| 20260503032826 | 62 | 209 | 1.0 | 2.0 | 0.00 | 0.00 | 0.00 | 66 | 1022.9 |
| 20260503032325 | 62 | 201 | 0.0 | 1.0 | 0.00 | 0.00 | 0.00 | 67 | 1022.9 |
| 20260503031822 | 62 | 201 | 0.0 | 1.0 | 0.00 | 0.00 | 0.00 | 66 | 1022.8 |
| 20260503031320 | 62 | 201 | 1.0 | 1.0 | 0.00 | 0.00 | 0.00 | 64 | 1022.9 |
| 20260503030816 | 62 | 200 | 1.0 | 1.0 | 0.00 | 0.00 | 0.00 | 65 | 1022.9 |
| 20260503030313 | 62 | 200 | 0.0 | 1.0 | 0.00 | 0.00 | 0.00 | 65 | 1022.8 |
| 20260503025809 | 62 | 197 | 0.0 | 1.0 | 0.00 | 0.00 | 0.00 | 65 | 1022.7 |
| 20260503025307 | 62 | 197 | 1.0 | 1.0 | 0.00 | 0.00 | 0.00 | 65 | 1022.6 |
| 20260503024804 | 62 | 197 | 0.0 | 1.0 | 0.00 | 0.00 | 0.00 | 66 | 1022.4 |
| 20260503024300 | 62 | 197 | 0.0 | 0.0 | 0.00 | 0.00 | 0.00 | 66 | 1022.5 |
| 20260503023757 | 63 | 197 | 0.0 | 0.0 | 0.00 | 0.00 | 0.00 | 66 | 1022.4 |
| 20260503023255 | 62 | 197 | 1.0 | 1.0 | 0.00 | 0.00 | 0.00 | 65 | 1022.4 |
| 20260503022751 | 62 | 196 | 0.0 | 0.0 | 0.00 | 0.00 | 0.00 | 66 | 1022.4 |
| 20260503022251 | 62 | 196 | 0.0 | 0.0 | 0.00 | 0.00 | 0.00 | 65 | 1022.3 |
| 20260503021748 | 63 | 196 | 0.0 | 0.0 | 0.00 | 0.00 | 0.00 | 64 | 1022.3 |
| 20260503021243 | 63 | 196 | 0.0 | 0.0 | 0.00 | 0.00 | 0.00 | 66 | 1022.4 |
| 20260503020742 | 63 | 189 | 0.0 | 0.0 | 0.00 | 0.00 | 0.00 | 66 | 1022.3 |
| 20260503020239 | 63 | 77 | 0.0 | 0.0 | 0.00 | 0.00 | 0.00 | 65 | 1022.4 |
| 20260503015735 | 63 | 77 | 0.0 | 0.0 | 0.00 | 0.00 | 0.00 | 65 | 1022.2 |
| 20260503015232 | 64 | 77 | 0.0 | 0.0 | 0.00 | 0.00 | 0.00 | 65 | 1022.1 |
| 20260503014728 | 64 | 77 | 0.0 | 0.0 | 0.00 | 0.00 | 0.00 | 64 | 1022.0 |
| 20260503014226 | 65 | 77 | 0.0 | 0.0 | 0.00 | 0.00 | 0.00 | 62 | 1022.0 |
| 20260503013723 | 65 | 77 | 0.0 | 0.0 | 0.00 | 0.00 | 0.00 | 60 | 1022.0 |
| 20260503013221 | 66 | 77 | 0.0 | 0.0 | 0.00 | 0.00 | 0.00 | 59 | 1022.0 |
| 20260503012718 | 66 | 77 | 0.0 | 0.0 | 0.00 | 0.00 | 0.00 | 58 | 1021.8 |
| 20260503012215 | 66 | 77 | 0.0 | 0.0 | 0.00 | 0.00 | 0.00 | 58 | 1022.0 |
| 20260503011711 | 67 | 77 | 0.0 | 0.0 | 0.00 | 0.00 | 0.00 | 56 | 1021.9 |
| 20260503011209 | 67 | 77 | 0.0 | 0.0 | 0.00 | 0.00 | 0.00 | 56 | 1021.6 |
| 20260503010704 | 68 | 77 | 0.0 | 0.0 | 0.00 | 0.00 | 0.00 | 55 | 1021.7 |
| 20260503010202 | 69 | 77 | 0.0 | 0.0 | 0.00 | 0.00 | 0.00 | 54 | 1021.8 |
| 20260503005659 | 69 | 77 | 0.0 | 0.0 | 0.00 | 0.00 | 0.00 | 54 | 1021.9 |
| 20260503005156 | 70 | 77 | 0.0 | 0.0 | 0.00 | 0.00 | 0.00 | 51 | 1021.9 |
| 20260503004652 | 71 | 77 | 0.0 | 0.0 | 0.00 | 0.00 | 0.00 | 48 | 1021.9 |
| 20260503004151 | 71 | 77 | 1.0 | 1.0 | 0.00 | 0.00 | 0.00 | 47 | 1021.6 |
| 20260503003648 | 72 | 76 | 0.0 | 0.0 | 0.00 | 0.00 | 0.00 | 46 | 1021.8 |
| 20260503003145 | 72 | 76 | 0.0 | 0.0 | 0.00 | 0.00 | 0.00 | 46 | 1021.8 |
| 20260503002641 | 72 | 67 | 0.0 | 1.0 | 0.00 | 0.00 | 0.00 | 44 | 1021.7 |
| 20260503002138 | 73 | 20 | 0.0 | 1.0 | 0.00 | 0.00 | 0.00 | 44 | 1021.6 |
| 20260503001634 | 73 | 57 | 1.0 | 2.0 | 0.00 | 0.00 | 0.00 | 44 | 1021.8 |
| 20260503001131 | 73 | 65 | 2.0 | 3.0 | 0.00 | 0.00 | 0.00 | 43 | 1021.7 |
| 20260503000629 | 73 | 24 | 1.0 | 3.0 | 0.00 | 0.00 | 0.00 | 41 | 1021.6 |
| 20260503000126 | 73 | 118 | 1.0 | 2.0 | 0.00 | 0.00 | 0.00 | 42 | 1021.6 |
| 20260502235622 | 73 | 78 | 0.0 | 2.0 | 0.00 | 0.00 | 0.00 | 41 | 1021.6 |
| 20260502235121 | 74 | 81 | 1.0 | 1.0 | 0.00 | 0.00 | 0.00 | 42 | 1021.5 |
| 20260502234616 | 74 | 86 | 2.0 | 2.0 | 0.00 | 0.00 | 0.00 | 41 | 1021.4 |
| 20260502234114 | 74 | 340 | 1.0 | 1.0 | 0.00 | 0.00 | 0.00 | 40 | 1021.5 |
| 20260502233609 | 74 | 37 | 1.0 | 2.0 | 0.00 | 0.00 | 0.00 | 41 | 1021.5 |
| 20260502233107 | 74 | 217 | 0.0 | 1.0 | 0.00 | 0.00 | 0.00 | 43 | 1021.6 |
| 20260502232602 | 74 | 348 | 2.0 | 3.0 | 0.00 | 0.00 | 0.00 | 41 | 1021.4 |
| 20260502232100 | 74 | 79 | 2.0 | 3.0 | 0.00 | 0.00 | 0.00 | 42 | 1021.4 |
| 20260502231557 | 74 | 330 | 3.0 | 4.0 | 0.00 | 0.00 | 0.00 | 41 | 1021.6 |
| 20260502231055 | 74 | 38 | 1.0 | 1.0 | 0.00 | 0.00 | 0.00 | 41 | 1021.7 |
| 20260502230553 | 74 | 50 | 1.0 | 4.0 | 0.00 | 0.00 | 0.00 | 41 | 1021.5 |
| 20260502230051 | 74 | 9 | 2.0 | 4.0 | 0.00 | 0.00 | 0.00 | 40 | 1021.5 |
| 20260502225546 | 74 | 108 | 2.0 | 3.0 | 0.00 | 0.00 | 0.00 | 39 | 1021.4 |